Tracking 19245 objects as of 17-Aug-2018
HD Live streaming from Space Station
objects crossing your sky now

FENGYUN 1C DEB

Track FENGYUN 1C DEB now!
10-day predictions


NORAD ID: 30306
Int'l Code: 1999-025ZT
Perigee: 744.1 km
Apogee: 941.5 km
Inclination: 98.8 °
Period: 101.6 minutes
Semi major axis: 7213 km
RCS: 0.0194 m2 (small)
Launch date: May 10, 1999
Source: People's Republic of China (PRC)
Launch site: Taiyaun Space Center, China (TSC)

Note: This is SATELLITE DEBRIS
aabbcc
Your satellite tracking list
Your tracking list is empty




NASA's NSSDC Master Catalog

Two Line Element Set (TLE):
1 30306U 99025ZT  18229.39807275  .00000323  00000-0  16661-3 0  9991
2 30306  98.8274 275.6768 0136800 145.4789 215.5363 14.16948507597381
Source of the keplerian elements: AFSPC